Location: Nelson
(41.2830°S, 173.2830°E)
Time: 19:03:00
(UTC+12:00)

Cosmos 1943 Rocket - Pass Details

Date: 14 May 2021
Orbit: 814 x 842 km, 71.0° (Epoch: 19 June)

Event Time Altitude Azimuth Distance (km) Brightness Sun altitude
Rises 19:10:00 0° 196° (SSW) 3,422 5.5 -20.8°
Reaches altitude 10° 19:12:49 10° 184° (S) 2,485 4.6 -21.4°
Enters shadow 19:15:55 24° 155° (SSE) 1,703 3.5 -21.9°
